Location: Bucquoy
(50.1391°N, 2.7097°E)
Time: 12:26:53
(UTC+00:00)

USA 81 - Visible Passes

Search period start: 21 September 2021 00:00
Search period end: 01 October 2021 00:00
Orbit: 786 x 787 km, 85.0° (Epoch: 05 September)

Date Brightness Start Highest point End Pass type
(mag) Time Alt. Az. Time Alt. Az. Time Alt. Az.
21 Sep 6.3 00:31:49 20° NNW 00:31:49 20° NNW 00:33:38 10° N visible
21 Sep 6.6 22:20:28 12° NE 22:20:28 12° NE 22:21:03 10° NNE visible
22 Sep 6.3 00:01:07 21° N 00:01:07 21° N 00:02:55 10° N visible
22 Sep 6.3 23:30:26 20° N 23:30:26 20° N 23:32:03 10° N visible
23 Sep 6.6 01:11:06 12° NW 01:11:06 12° NW 01:11:44 10° NNW visible
23 Sep 6.4 22:59:44 18° NNE 22:59:44 18° NNE 23:01:04 10° NNE visible
24 Sep 6.5 00:40:24 15° NNW 00:40:24 15° NNW 00:41:35 10° NNW visible
24 Sep 6.5 22:29:02 15° NNE 22:29:02 15° NNE 22:29:56 10° NNE visible
25 Sep 6.5 00:09:42 17° NNW 00:09:42 17° NNW 00:11:04 10° N visible
25 Sep 6.7 21:58:21 11° NNE 21:58:21 11° NNE 21:58:34 10° NNE visible
25 Sep 6.5 23:39:00 18° N 23:39:00 18° N 23:40:22 10° N visible
26 Sep 6.5 23:08:18 17° N 23:08:18 17° N 23:09:32 10° N visible
27 Sep 6.8 00:48:58 10° NNW 00:48:58 10° NNW 00:49:05 10° NNW visible
27 Sep 6.6 22:37:35 15° NNE 22:37:35 15° NNE 22:38:33 10° NNE visible
28 Sep 6.7 00:18:15 13° NNW 00:18:15 13° NNW 00:18:59 10° NNW visible
28 Sep 6.6 22:06:52 13° NNE 22:06:52 13° NNE 22:07:25 10° NNE visible
28 Sep 6.7 23:47:32 15° NNW 23:47:32 15° NNW 23:48:30 10° N visible
29 Sep 6.7 23:16:49 16° N 23:16:49 16° N 23:17:49 10° N visible
30 Sep 6.7 22:46:06 15° N 22:46:06 15° N 22:46:59 10° N visible
